Clarion, IA

3:17 PM CST on February 20, 2017 (GMT -0600)
Clarion Municipal

Weather History for KCAV - January, 2013

Change the Weather History Date:

Sunday, January 27, 2013

  Actual Average Record
Temperature  
Mean Temperature 29 °F -  
Max Temperature 32 °F 22 °F 59 °F (2002)
Min Temperature 26 °F 5 °F -21 °F (1950)
Degree Days  
Heating Degree Days 36    
Moisture  
Dew Point 27 °F    
Average Humidity 86    
Maximum Humidity 100    
Minimum Humidity 51    
Precipitation  
Precipitation 0.13 in - - ()
Sea Level Pressure  
Sea Level Pressure 29.89 in    
Wind  
Wind Speed 15 mph (SE)    
Max Wind Speed 21 mph    
Max Gust Speed 28 mph    
Visibility 4 miles    
Events Rain    
Averages and records for this station are not official NWS values.
T = Trace of Precipitation, MM = Missing Value Source: NWS Daily Summary

Daily Weather History Graph

Daily Weather History Graph

Search for Another Location

Airport or City:

Trip Planner

Search our weather history database for the weather conditions in past years. The results will help you decide how hot, cold, wet, or windy it might be!

Date:

Astronomy

Jan. 27, 2013 Rise Set
Actual Time 7:34 AM CST 5:22 PM CST
Civil Twilight 7:03 AM CST 5:52 PM CST
Nautical Twilight 6:29 AM CST 6:26 PM CST
Astronomical Twilight 5:56 AM CST 6:59 PM CST
Moon 6:19 PM CST (1/27) 7:25 AM CST (1/27)
Length of Visible Light 10h 48m
Length of Day
9h 48m
Full, 100% of the Moon is Illuminated
Jan 27
Full
Feb 3
Last Quarter
Feb 10
New
Feb 17
First Quarter
Feb 25
Full

Hourly Weather History & Observations

Time (CST) Temp. Windchill Dew Point Humidity Pressure Visibility Wind Dir Wind Speed Gust Speed Precip Events Conditions
12:15 AM 28.4 °F 16.6 °F 12.2 °F 51% 30.10 in 10.0 mi SSE 16.1 mph - N/A   Partly Cloudy
12:35 AM 26.6 °F 14.3 °F 12.2 °F 55% 30.09 in 10.0 mi SSE 16.1 mph - N/A   Clear
12:55 AM 26.6 °F 14.3 °F 12.2 °F 55% 30.08 in 10.0 mi SE 16.1 mph - N/A   Clear
1:15 AM 26.6 °F 14.3 °F 14.0 °F 59% 30.07 in 10.0 mi SE 16.1 mph - N/A   Clear
1:35 AM 26.6 °F 14.3 °F 14.0 °F 59% 30.07 in - SSE 16.1 mph - N/A   Scattered Clouds
1:55 AM 28.4 °F 17.0 °F 14.0 °F 55% 30.07 in 10.0 mi SSE 15.0 mph - N/A   Mostly Cloudy
2:15 AM 28.4 °F 16.6 °F 14.0 °F 55% 30.06 in 10.0 mi SSE 16.1 mph - N/A   Partly Cloudy
2:35 AM 28.4 °F 17.0 °F 14.0 °F 55% 30.06 in 10.0 mi SE 15.0 mph 20.7 mph N/A   Clear
2:55 AM 28.4 °F 16.6 °F 14.0 °F 55% 30.05 in 10.0 mi SE 16.1 mph - N/A   Mostly Cloudy
3:15 AM 28.4 °F 16.2 °F 14.0 °F 55% 30.04 in 10.0 mi SE 17.3 mph - N/A   Overcast
3:35 AM 30.2 °F 18.1 °F 14.0 °F 51% 30.03 in 10.0 mi SSE 18.4 mph - N/A   Overcast
3:55 AM 28.4 °F 15.8 °F 15.8 °F 59% 30.02 in 10.0 mi SE 18.4 mph - N/A   Mostly Cloudy
4:15 AM 30.2 °F 18.9 °F 15.8 °F 55% 30.02 in 10.0 mi SSE 16.1 mph - N/A   Overcast
4:35 AM 30.2 °F 18.9 °F 15.8 °F 55% 30.02 in 10.0 mi SE 16.1 mph - N/A   Overcast
4:55 AM 30.2 °F 19.3 °F 15.8 °F 55% 30.02 in 10.0 mi SSE 15.0 mph - N/A   Overcast
5:15 AM 32.0 °F 21.2 °F 15.8 °F 51% 30.01 in 10.0 mi SSE 16.1 mph 21.9 mph N/A   Overcast
5:35 AM 32.0 °F 21.6 °F 17.6 °F 55% 30.01 in 10.0 mi SSE 15.0 mph - N/A   Overcast
6:15 AM 32.0 °F 20.5 °F 21.2 °F 64% 30.01 in 10.0 mi SSE 18.4 mph - N/A   Light Drizzle
6:35 AM 32.0 °F 20.5 °F 23.0 °F 69% 30.01 in 7.0 mi SSE 18.4 mph - N/A Rain Light Rain
6:55 AM 32.0 °F 20.5 °F 26.6 °F 80% 30.00 in 7.0 mi SSE 18.4 mph 25.3 mph 0.01 in Rain Light Rain
7:15 AM 32.0 °F 19.8 °F 26.6 °F 80% 29.99 in 5.0 mi SSE 20.7 mph - N/A Rain Light Rain
7:35 AM 32.0 °F 19.8 °F 28.4 °F 87% 29.97 in 5.0 mi SSE 20.7 mph 26.5 mph N/A Rain Light Rain
7:55 AM 32.0 °F 19.8 °F 28.4 °F 87% 29.96 in 1.8 mi SE 20.7 mph - 0.05 in Rain Light Rain
8:15 AM 32.0 °F 20.1 °F 30.2 °F 93% 29.96 in 3.0 mi SE 19.6 mph 25.3 mph N/A   Overcast
8:35 AM 32.0 °F 19.8 °F 28.4 °F 87% 29.95 in 3.0 mi SE 20.7 mph 26.5 mph N/A   Light Drizzle
8:55 AM 32.0 °F 19.8 °F 30.2 °F 93% 29.94 in 1.5 mi SSE 20.7 mph - 0.01 in Rain Light Rain
9:15 AM 32.0 °F 20.1 °F 30.2 °F 93% 29.94 in 0.8 mi SE 19.6 mph - N/A Rain Light Rain
9:35 AM 32.0 °F 19.8 °F 30.2 °F 93% 29.93 in 1.2 mi SE 20.7 mph 26.5 mph N/A Rain Light Rain
9:55 AM 32.0 °F 20.5 °F 30.2 °F 93% 29.92 in 1.8 mi SE 18.4 mph 26.5 mph 0.05 in Rain Light Rain
10:15 AM 32.0 °F 20.5 °F 30.2 °F 93% 29.93 in 3.0 mi SE 18.4 mph 27.6 mph N/A   Overcast
10:35 AM 32.0 °F 20.5 °F 30.2 °F 93% 29.92 in 4.0 mi SE 18.4 mph 27.6 mph N/A   Overcast
10:55 AM 32.0 °F 20.1 °F 30.2 °F 93% 29.90 in 5.0 mi SE 19.6 mph - N/A   Overcast
11:15 AM 32.0 °F 20.8 °F 30.2 °F 93% 29.91 in 5.0 mi SE 17.3 mph 26.5 mph N/A   Overcast
11:35 AM 32.0 °F 21.2 °F 30.2 °F 93% 29.90 in 5.0 mi SE 16.1 mph 23.0 mph N/A Rain Light Rain
11:55 AM 32.0 °F 22.1 °F 30.2 °F 93% 29.89 in 7.0 mi SSE 13.8 mph 24.2 mph N/A   Overcast
12:15 PM 32.0 °F 22.1 °F 30.2 °F 93% 29.87 in 2.5 mi SE 13.8 mph 20.7 mph N/A   Overcast
12:35 PM 32.0 °F 20.5 °F 30.2 °F 93% 29.85 in 0.8 mi SE 18.4 mph - N/A   Overcast
12:55 PM 32.0 °F 21.6 °F 30.2 °F 93% 29.84 in 0.8 mi SSE 15.0 mph 21.9 mph N/A   Overcast
1:15 PM 32.0 °F 22.5 °F 32.0 °F 100% 29.84 in 0.5 mi SE 12.7 mph - N/A Rain Light Rain
1:35 PM 32.0 °F 22.1 °F 32.0 °F 100% 29.83 in 0.5 mi SE 13.8 mph - N/A   Light Drizzle
1:55 PM 32.0 °F 22.5 °F 32.0 °F 100% 29.82 in 0.5 mi SE 12.7 mph - 0.01 in Rain Light Rain
2:15 PM 32.0 °F 22.1 °F 32.0 °F 100% 29.80 in 0.8 mi SE 13.8 mph - N/A   Overcast
2:35 PM 32.0 °F 22.5 °F 32.0 °F 100% 29.80 in 1.0 mi SE 12.7 mph - N/A   Overcast
2:55 PM 32.0 °F 21.2 °F 32.0 °F 100% 29.79 in 1.0 mi SE 16.1 mph - N/A Rain Light Rain
3:15 PM 32.0 °F 20.8 °F 32.0 °F 100% 29.78 in 1.0 mi SE 17.3 mph - N/A   Overcast
3:35 PM 32.0 °F 21.6 °F 32.0 °F 100% 29.78 in 1.0 mi SE 15.0 mph - N/A   Overcast
3:55 PM 32.0 °F 22.5 °F 32.0 °F 100% 29.78 in 0.8 mi SE 12.7 mph 18.4 mph N/A Rain Light Rain
4:15 PM 32.0 °F 23.0 °F 32.0 °F 100% 29.78 in 0.8 mi SE 11.5 mph - N/A Rain Light Rain
4:35 PM 32.0 °F 22.5 °F 32.0 °F 100% 29.77 in 0.8 mi SE 12.7 mph - N/A Rain Light Rain
4:55 PM 32.0 °F 23.0 °F 32.0 °F 100% 29.77 in 0.8 mi SE 11.5 mph - N/A Rain Light Rain
5:15 PM 32.0 °F 23.6 °F 32.0 °F 100% 29.77 in 0.8 mi SE 10.4 mph 17.3 mph N/A Rain Light Rain
5:35 PM 32.0 °F 23.6 °F 32.0 °F 100% 29.77 in 1.2 mi SE 10.4 mph - N/A   Overcast
5:55 PM 32.0 °F 22.5 °F 32.0 °F 100% 29.76 in 1.8 mi SE 12.7 mph - N/A   Overcast
6:15 PM 32.0 °F 24.2 °F 32.0 °F 100% 29.76 in 2.0 mi SE 9.2 mph - N/A   Overcast
6:35 PM 32.0 °F 23.6 °F 32.0 °F 100% 29.77 in 2.0 mi SE 10.4 mph - N/A Rain Light Rain
6:55 PM 32.0 °F 24.8 °F 32.0 °F 100% 29.77 in 2.0 mi SE 8.1 mph - N/A   Overcast
7:15 PM 32.0 °F 24.2 °F 32.0 °F 100% 29.78 in 1.8 mi ESE 9.2 mph - N/A Rain Light Rain
7:35 PM 32.0 °F 24.8 °F 32.0 °F 100% 29.77 in 1.8 mi SE 8.1 mph - N/A   Overcast
7:55 PM 32.0 °F 25.6 °F 32.0 °F 100% 29.77 in 2.0 mi SE 6.9 mph - N/A Rain Light Rain
8:15 PM 32.0 °F 24.8 °F 32.0 °F 100% 29.76 in 2.5 mi SE 8.1 mph - N/A   Overcast
8:35 PM 32.0 °F 24.8 °F 32.0 °F 100% 29.76 in 3.0 mi SE 8.1 mph - N/A   Overcast
8:55 PM 32.0 °F 25.6 °F 32.0 °F 100% 29.76 in 2.0 mi SE 6.9 mph - N/A   Overcast
9:15 PM 32.0 °F 25.6 °F 32.0 °F 100% 29.75 in 2.5 mi ESE 6.9 mph - N/A   Overcast
9:35 PM 32.0 °F 25.6 °F 32.0 °F 100% 29.76 in 3.0 mi SE 6.9 mph - N/A Rain Light Rain
9:55 PM 32.0 °F 26.4 °F 32.0 °F 100% 29.76 in 4.0 mi SE 5.8 mph - N/A Rain Light Rain
10:15 PM 32.0 °F 28.7 °F 32.0 °F 100% 29.75 in 3.0 mi ESE 3.5 mph - N/A Rain Light Rain
10:35 PM 32.0 °F - 32.0 °F 100% 29.76 in 3.0 mi Calm Calm - N/A   Overcast
10:55 PM 32.0 °F - 32.0 °F 100% 29.77 in 3.0 mi Calm Calm - N/A   Overcast
11:15 PM 32.0 °F - 32.0 °F 100% 29.78 in 2.5 mi Calm Calm - N/A   Overcast
11:35 PM 32.0 °F - 32.0 °F 100% 29.77 in 2.5 mi Calm Calm - N/A   Overcast
11:55 PM 32.0 °F - 32.0 °F 100% 29.77 in 0.5 mi Calm Calm - N/A   Overcast